Tracking 29892 objects as of 21-Nov-2024
HD Live streaming from Space Station
objects crossing your sky now

DMSP 5D-2 F13 DEB

Track DMSP 5D-2 F13 DEB now!
10-day predictions


NORAD ID: 40414
Int'l Code: 1995-015AB
Perigee: 794.8 km
Apogee: 812.7 km
Inclination: 98.7 °
Period: 100.8 minutes
Semi major axis: 7174 km
RCS: Unknown
Launch date: March 24, 1995
Source: United States (US)
Launch site: AIR FORCE WESTERN TEST RANGE (AFWTR)

Note: This is SATELLITE DEBRIS
Your satellite tracking list
Your tracking list is empty




NASA's NSSDC Master Catalog

Two Line Element Set (TLE):
1 40414U 95015AB  24324.55692660  .00004526  00000-0  18207-2 0  9994
2 40414  98.6720 344.5272 0012451 166.1657 193.9868 14.28534397505100
Source of the keplerian elements: AFSPC